Pope Army Airfield, NC

7:56 AM EDT on July 30, 2016 (GMT -0400)
Simmons Army Air Field

Weather History for KFBG - March, 2013

Change the Weather History Date:

Sunday, March 3, 2013

  Actual Average Record
Temperature  
Mean Temperature 38 °F -  
Max Temperature 48 °F 58 °F 82 °F (1997)
Min Temperature 28 °F 37 °F 18 °F (2009)
Degree Days  
Heating Degree Days 27    
Moisture  
Dew Point 18 °F    
Average Humidity 46    
Maximum Humidity 65    
Minimum Humidity 31    
Precipitation  
Precipitation 0.00 in - - ()
Sea Level Pressure  
Sea Level Pressure 29.92 in    
Wind  
Wind Speed 7 mph (NW)    
Max Wind Speed 14 mph    
Max Gust Speed 24 mph    
Visibility 10 miles    
Events      
Averages and records for this station are not official NWS values.
T = Trace of Precipitation, MM = Missing Value Source: NWS Daily Summary

Daily Weather History Graph

Daily Weather History Graph

Search for Another Location

Airport or City:

Trip Planner

Search our weather history database for the weather conditions in past years. The results will help you decide how hot, cold, wet, or windy it might be!

Date:

Astronomy

Mar. 03, 2013 Rise Set
Actual Time 6:42 AM EST 6:13 PM EST
Civil Twilight 6:16 AM EST 6:38 PM EST
Nautical Twilight 5:47 AM EST 7:08 PM EST
Astronomical Twilight 5:18 AM EST 7:37 PM EST
Moon No Moon Rise 10:10 AM EST (3/3)
Length of Visible Light 12h 21m
Length of Day
11h 30m
Waning Gibbous, 64% of the Moon is Illuminated
Mar 3
Waning Gibbous
Mar 4
Last Quarter
Mar 11
New
Mar 19
First Quarter
Mar 27
Full

Hourly Weather History & Observations

Time (EST) Temp. Windchill Dew Point Humidity Pressure Visibility Wind Dir Wind Speed Gust Speed Precip Events Conditions
12:58 AM 34.2 °F 29.0 °F 19.0 °F 54% 29.93 in 10.0 mi NNW 5.8 mph - N/A   Clear
1:58 AM 32.0 °F 27.5 °F 18.5 °F 58% 29.93 in 10.0 mi NNW 4.6 mph - N/A   Clear
2:58 AM 30.9 °F 25.2 °F 18.0 °F 59% 29.90 in 10.0 mi NNW 5.8 mph - N/A   Clear
3:58 AM 29.7 °F 26.1 °F 17.6 °F 61% 29.90 in 10.0 mi NNW 3.5 mph - N/A   Clear
4:58 AM 29.1 °F - 17.8 °F 63% 29.93 in 10.0 mi Calm Calm - N/A   Clear
5:58 AM 28.4 °F 21.2 °F 18.1 °F 65% 29.93 in 10.0 mi NW 6.9 mph - N/A   Clear
6:58 AM 28.8 °F 23.7 °F 18.1 °F 65% 29.93 in 10.0 mi NW 4.6 mph - N/A   Clear
7:58 AM 32.5 °F 28.1 °F 19.8 °F 59% 29.97 in 10.0 mi NW 4.6 mph - N/A   Clear
8:58 AM 37.0 °F 29.3 °F 18.3 °F 47% 29.96 in 10.0 mi NW 11.5 mph - N/A   Clear
9:58 AM 39.6 °F 34.7 °F 17.2 °F 41% 29.96 in 10.0 mi Variable 6.9 mph - N/A   Clear
10:58 AM 42.1 °F 38.4 °F 17.1 °F 37% 29.94 in 10.0 mi Variable 5.8 mph 18.4 mph N/A   Partly Cloudy
11:58 AM 44.8 °F 39.9 °F 18.0 °F 34% 29.93 in 10.0 mi WSW 9.2 mph - N/A   Partly Cloudy
12:58 PM 45.7 °F 39.8 °F 18.0 °F 33% 29.91 in 10.0 mi NW 12.7 mph - N/A   Scattered Clouds
1:53 PM 46.4 °F 40.4 °F 17.6 °F 32% 29.86 in 10.0 mi WSW 13.8 mph 19.6 mph N/A   Partly Cloudy
1:55 PM 46.4 °F 40.4 °F 19.4 °F 34% 29.86 in 10.0 mi WNW 13.8 mph 24.2 mph N/A   Partly Cloudy
1:58 PM 46.8 °F - 18.5 °F 32% 29.88 in 10.0 mi WNW 11.5 mph 24.2 mph N/A   Partly Cloudy
2:58 PM 48.0 °F - 18.3 °F 31% 29.86 in 10.0 mi WNW 11.5 mph 16.1 mph N/A   Clear
3:58 PM 48.4 °F - 18.5 °F 31% 29.86 in 10.0 mi WNW 11.5 mph 19.6 mph N/A   Clear
4:58 PM 47.7 °F - 18.7 °F 32% 29.86 in 10.0 mi WNW 12.7 mph - N/A   Clear
5:58 PM 45.0 °F 39.7 °F 18.5 °F 35% 29.88 in 10.0 mi NW 10.4 mph - N/A   Clear
6:58 PM 41.7 °F 38.8 °F 19.6 °F 41% 29.91 in 10.0 mi NW 4.6 mph - N/A   Clear
7:58 PM 39.9 °F 35.1 °F 19.8 °F 44% 29.94 in 10.0 mi NW 6.9 mph - N/A   Clear
8:58 PM 38.1 °F 32.9 °F 18.3 °F 45% 29.96 in 10.0 mi NW 6.9 mph - N/A   Clear
9:58 PM 36.3 °F 30.1 °F 18.5 °F 48% 29.99 in 10.0 mi North 8.1 mph - N/A   Clear
10:58 PM 33.8 °F - 18.9 °F 54% 30.00 in 10.0 mi North 2.3 mph - N/A   Clear
11:58 PM 31.6 °F 27.0 °F 17.4 °F 56% 30.00 in 10.0 mi NW 4.6 mph - N/A   Clear